#timestamp,LO_Frequency,Hit,StdDev 
1665684015.0,286046995.8,N
1665684015.9,286046995.8,N
1665684035.8,286046995.1,N
1665684055.6,286046999.2,N
1665684075.4,286046996.7,N
1665684095.3,286046998.2,N
1665684115.1,286046998.4,N
1665684135.8,286047000.1,N
1665684155.7,286047000.3,N
1665684175.5,286047000.4,N
1665684195.4,286047002.7,N
1665684215.2,286046998.7,N
1665684235.0,286046994.0,N
1665684235.9,286046994.0,N
1665684255.8,286046996.8,N
1665684275.6,286046998.5,N
1665684295.4,286047001.5,N
1665684315.3,286047005.8,N
1665684335.1,286047006.9,N
1665684355.9,286047007.1,N
1665684375.7,286047007.5,N
1665684395.5,286047008.2,N
1665684415.4,286047010.4,N
1665684435.2,286047012.7,N
1665684455.1,286047012.5,N
1665684456.0,286047012.5,N
1665684475.8,286047017.5,N
1665684495.6,286047019.3,N
1665684515.5,286047025.1,Y
1665684535.3,286047023.3,P
1665684555.2,286047024.7,N
1665684575.9,286047024.6,N
1665684595.7,286047025.8,N
1665684615.6,286047025.7,N
1665684635.4,286047027.5,Y
1665684655.2,286047004.7,P
1665684675.1,286047005.0,N
1665684676.0,286047005.0,N
1665684695.8,286047001.3,N
1665684715.7,286047002.1,N
1665684735.5,286047000.5,N
1665684755.3,286046996.5,N
1665684775.2,286046997.5,N
1665684795.0,286046995.8,N
1665684795.9,286046995.8,N
1665684815.7,286046991.8,N
1665684835.6,286046990.9,N
1665684855.4,286046993.2,N
1665684875.3,286046991.9,N
1665684895.1,286046991.5,N
1665684896.0,286046991.5,N
1665684915.8,286046992.8,N
1665684935.7,286046994.1,N
1665684955.5,286046995.9,N
1665684975.3,286046995.7,N
1665684995.2,286046996.2,N
1665685015.0,286047000.5,N
1665685015.9,286047000.5,N
1665685035.8,286047000.7,N
1665685055.6,286047000.7,N
1665685075.4,286047000.9,N
1665685095.3,286047000.1,N
1665685115.1,286046999.8,N
1665685135.8,286047001.6,N
1665685155.7,286047002.7,N
1665685175.5,286047002.2,N
1665685195.3,286046999.7,N
1665685215.2,286047001.0,N
1665685235.0,286046998.2,N
1665685235.9,286046998.2,N
1665685255.8,286046998.8,N
1665685275.6,286046998.5,N
1665685295.4,286047002.2,N
1665685315.3,286047005.9,N
1665685335.1,286047001.4,N
1665685355.8,286047000.7,N
1665685375.7,286046999.4,N
1665685395.5,286046996.8,N
1665685415.4,286046993.8,N
1665685435.2,286046995.8,N
1665685455.0,286046999.1,N
1665685455.9,286046999.1,N
1665685475.8,286047000.6,N
1665685495.6,286047000.7,N
1665685515.4,286046997.0,N
1665685535.3,286046994.8,N
1665685555.1,286046993.4,N
1665685575.9,286046994.0,N
1665685595.7,286046995.3,N
1665685615.5,286047000.0,N
1665685635.4,286047000.4,N
1665685655.2,286047001.9,N
1665685675.0,286047002.5,N
1665685675.9,286047002.5,N
1665685695.8,286047004.3,N
1665685715.6,286047007.5,N
1665685735.5,286047003.0,N
1665685755.3,286047001.5,N
1665685775.1,286047002.5,N
1665685795.9,286047001.6,N
1665685815.7,286047003.0,N
1665685835.6,286047003.4,N
1665685855.4,286047003.9,N
1665685875.2,286047004.8,N
1665685895.1,286047004.9,N
1665685896.0,286047004.9,N
1665685915.8,286047004.8,N
1665685935.6,286047007.6,N
1665685955.5,286047002.9,N
1665685975.3,286047005.5,N
1665685995.2,286047008.8,N
1665686015.9,286047008.9,N
1665686035.7,286047010.1,N
1665686055.6,286047009.6,N
1665686075.4,286047009.8,N
1665686095.2,286047008.2,N
1665686115.1,286047006.8,N
1665686116.0,286047006.8,N
1665686135.8,286047006.2,N
1665686155.7,286047010.7,Y
1665686175.5,286047003.5,P
1665686195.3,286047006.6,P
1665686215.2,286047013.9,P
1665686235.0,286047019.8,Y
1665686235.9,286047019.8,P
1665686255.8,286047015.4,N
1665686275.6,286047016.6,P
1665686295.4,286047020.2,Y
1665686315.3,286047009.2,P
1665686335.1,286047011.4,P
1665686355.8,286047011.4,P
1665686375.7,286047013.8,Y
1665686395.5,286047000.9,P
1665686415.4,286047003.4,N
1665686435.2,286047003.1,N
1665686455.0,286047004.8,N
1665686455.9,286047004.8,N
1665686475.8,286047005.3,N
1665686495.6,286047005.3,N
1665686515.4,286047007.5,N
1665686535.3,286047004.7,N
1665686555.1,286047005.2,N
1665686575.9,286047005.7,N
1665686595.7,286047003.8,N
1665686615.5,286047003.7,N
1665686635.4,286047005.6,N
1665686655.2,286047005.7,N
1665686675.0,286047006.6,N
1665686676.0,286047006.6,Y
1665686695.8,286047004.9,P
1665686715.6,286047008.3,P
1665686735.5,286047010.6,P
1665686755.3,286047007.5,Y
1665686775.1,286047000.4,P
1665686795.9,286046999.0,N
1665686815.7,286046998.8,N
1665686835.6,286046999.5,N
1665686855.4,286047002.4,N
1665686875.2,286047000.1,N
1665686895.1,286047000.7,N
1665686896.0,286047000.7,N
1665686915.8,286046996.9,N
1665686935.6,286046993.8,N
1665686955.5,286046997.6,N
1665686975.3,286046997.2,N
1665686995.1,286046995.7,N
1665687015.9,286046997.2,N
1665687035.7,286046990.2,Y
1665687055.6,286046988.8,P
1665687075.4,286046986.4,N
1665687095.2,286046987.5,N
1665687115.1,286046992.6,N
1665687116.0,286046992.6,N
1665687135.8,286046992.8,N
1665687155.6,286046990.2,N
1665687175.5,286046988.8,N
1665687195.3,286046988.4,Y
1665687215.2,286046993.9,P
1665687235.9,286046991.7,P
1665687255.7,286046989.2,P
1665687275.6,286046991.3,Y
1665687295.4,286046998.1,P
1665687315.3,286047000.7,N
1665687335.1,286046998.5,N
1665687336.0,286046998.5,N
1665687355.8,286047006.0,N
1665687375.7,286047001.1,N
1665687395.5,286046997.5,N
1665687415.4,286046996.4,N
1665687435.2,286047000.6,N
1665687455.0,286046998.1,N
1665687455.9,286046998.1,N
1665687475.8,286046997.5,N
1665687495.6,286047011.9,Y
1665687515.5,286046997.2,P
1665687535.3,286046999.1,N
1665687555.1,286047004.1,P
1665687575.9,286047004.2,N
1665687595.7,286047001.4,N
